Home   Weather   Schlieren   Past weeks
Flag for Switzerland

Past Weather in Schlieren, Zurich, Switzerland — Yesterday and Last 2 Weeks

Now
38 °F

Chilly.


Feels Like: 31 °F
Forecast: 39 / 26 °F
Wind: 10 mph from West

Location: Zuerich-Fluntern

Current Time: Dec 10, 2019 at 2:21:50 am

Latest Report: Dec 10, 2019 at 1:00 am


Visibility: N/A

Pressure: 30.16 "Hg

Humidity: 87%

Dew Point: 35 °F

Location of SchlierenLocation

Past Weather in Schlieren — Graph

°F

Schlieren Temperature Yesterday

Maximum temperature yesterday: 49 °F (at 12:00 am)
Minimum temperature yesterday: 38 °F (at 11:00 pm)
Average temperature yesterday: 43 °F

High & Low Weather Summary for the Past Weeks

 TemperatureHumidityPressure
High51 °F (Nov 26, 2:00 pm)100% (Nov 26, 7:00 am)30.43 "Hg (Nov 26, 7:00 am)
Low26 °F (Dec 4, 4:00 am)54% (Dec 7, 4:00 am)29.57 "Hg (Nov 27, 3:00 am)
Average39 °F83%30.04 "Hg
* Reported Nov 25 1:00 am — Dec 10 1:00 am, Schlieren. Weather by CustomWeather, © 2019

Note: Actual official high and low records may vary slightly from our data, if they occured in-between our weather recording intervals... More about our weather records

Schlieren Weather History for the Previous 24 Hours

Scroll right to see more
 ConditionsComfort  
Time TempWeatherWind HumidityBarometerVisibility
1:00 am
Tue, Dec 10
38 °FChilly.10 mph87%30.16 "HgN/A
12:00 am38 °FChilly.9 mph90%30.11 "HgN/A
11:00 pm
Mon, Dec 9
38 °FChilly.13 mph88%30.07 "HgN/A
10:00 pm39 °FChilly.10 mph88%30.03 "HgN/A
9:00 pm40 °FChilly.12 mph88%29.99 "HgN/A
4:00 pm40 °FQuite cool.12 mph90%29.78 "HgN/A
3:00 pm42 °FQuite cool.13 mph82%29.77 "HgN/A
2:00 pm41 °FQuite cool.16 mph82%29.78 "HgN/A
1:00 pm42 °FOvercast.15 mph79%29.78 "HgN/A
12:00 pm46 °FCool.16 mph56%29.75 "HgN/A
11:00 am46 °FCool.20 mph61%29.78 "HgN/A
10:00 am44 °FQuite cool.14 mph64%29.79 "HgN/A
9:00 am45 °FQuite cool.14 mph61%29.78 "HgN/A
8:00 am43 °FQuite cool.15 mph68%29.80 "HgN/A
7:00 am44 °FQuite cool.14 mph67%29.82 "HgN/A
6:00 am42 °FQuite cool.15 mph75%29.83 "HgN/A
5:00 am44 °FQuite cool.20 mph66%29.83 "HgN/A
4:00 am44 °FQuite cool.20 mph67%29.82 "HgN/A
3:00 am45 °FCool.18 mph81%29.83 "HgN/A
2:00 am47 °FCool.23 mph80%29.82 "HgN/A
Weather by CustomWeather, © 2019

See weather overview

Advertising